Showing default

FALCONSAT-10, 58291

Orbit data source: Space-Track

FALCONSAT-10, 58291 is a payload satellite owned by USAF Academy (US) in SSO that was launched on Sat, 11 Nov 2023 UTC via an FALCON 9 launch vehicle from the Air Force Western Test Range (AFWTR). Payload-class satellites include a variety of spacecraft equipped with specific instruments for various scientific and technological missions. These include communications satellites like Starlink; space stations such as the ISS; scientific satellites like the Hubble; Earth observation satellites from companies like Planet Labs, Umbra, and HawkEye 360; GPS; miniature CubeSats for education and research; and military/defense satellites.

Loading next visibility...
Identifier
58291, 2023-174AM
Orbit
SSO
Country
Flag of USUS
Related business
Manufacturer
USAF Academy
Mission
Operational Defense Technology
Bus & Motor
FALCONSAT, Unknown motor
Mass
140 kg wet, 140 kg dry
Launch date (UTC)
2023-11-11 (2 years ago)
Launch vehicle
FALCON 9
Launch site
Air Force Western Test Range (AFWTR)
Object type
Payload
Rocket body
Debris
Shape & HBR
Box, 0.5 m
Radar Cross Section
0.780 m², Medium (>0.1 m² and < 1m²)

Expand to show TLE details & history
Last TLE update: 14 hours ago

TLE from 14 hours ago
0 FALCONSAT-10
1 58291U 23174AM  25310.67223482  .00008828  00000-0  35780-3 0  9999
2 58291  97.4059  24.0797 0007520 249.2094 110.8339 15.24858063110823
Epoch: 2025-11-06T16:08Z
TLE epoch observation values (Epoch: 2025-11-06T16:08:01.088Z)
Latitude
0.00003°
Longitude
95.94797°
Altitude
496.15 km
Speed
7.616 km/s
True Right ascension
01h 36m 19s
True Declination
0° 00' 00"
Sunlit
Object was in full shadow at epoch
Visualization orbit readout
Latitude
Unknown
Longitude
Unknown
Altitude
Unknown
Speed
Unknown
Apparent Right ascension
Unknown
Apparent Declination
Unknown
Sunlit
N/A
Visualization observer readout
Local Sidereal Time
02:37:18
Azimuth
Unknown
Elevation
Unknown
Doppler factor
Unknown
Orbital elements
Apogee altitude
493.334 km
Perigee altitude
483.008 km
Semi-major axis
6,866.308 km
Eccentricity
0.00075
Inclination
97.4059°
RAAN
24.0797°
Arg. of periapsis
249.2094°
True anomaly
110.91441°
Mean anomaly
110.8339°
Eccentric anomaly
110.87416°
Mean motion
3.81468 °/min
Orbital period
94.37 mins
BSTAR
0.0003578
Loading maneuver chart data...
Computing Atmospheric mass density...
Loading historical data...
Loading historical data...
Loading historical data...
Loading historical data...
Loading historical data...
Loading historical data...
Loading historical data...

Documentation

Showing up to 5 results
|